GW4891 Weather Reports


time (UTC)temp
C
wind
direction
speed
KPH
gust
KPH
rain 1hr
cm
rain 24hr
cm
rain mn
cm
humidity
%
barometer
mb
20260906225705 30 155 1.6 4.8 0.00 0.00 0.00 23 1021.3
20260906225201 30 1 1.6 4.8 0.00 0.00 0.00 23 1021.3
20260906224656 30 146 4.8 4.8 0.00 0.00 0.00 23 1021.5
20260906224153 30 155 1.6 3.2 0.00 0.00 0.00 23 1021.3
20260906223649 31 128 0.0 4.8 0.00 0.00 0.00 23 1021.3
20260906223148 30 126 1.6 3.2 0.00 0.00 0.00 22 1021.6
20260906222646 30 145 0.0 9.7 0.00 0.00 0.00 24 1021.5
20260906222145 30 113 0.0 3.2 0.00 0.00 0.00 24 1021.6
20260906221643 30 141 1.6 4.8 0.00 0.00 0.00 23 1021.6
20260906221138 31 119 1.6 3.2 0.00 0.00 0.00 21 1021.7
20260906220634 31 137 4.8 6.4 0.00 0.00 0.00 22 1021.8
20260906220129 30 169 4.8 11.3 0.00 0.00 0.00 23 1021.8
20260906215628 31 220 6.4 6.4 0.00 0.00 0.00 23 1021.8
20260906215126 31 172 6.4 9.7 0.00 0.00 0.00 21 1021.8
20260906214626 30 122 1.6 6.4 0.00 0.00 0.00 23 1021.8
20260906214120 31 162 3.2 9.7 0.00 0.00 0.00 22 1022.1
20260906213619 31 146 3.2 4.8 0.00 0.00 0.00 24 1022.0
20260906213114 31 124 1.6 3.2 0.00 0.00 0.00 21 1022.2
20260906212612 31 125 0.0 1.6 0.00 0.00 0.00 21 1022.2
20260906212108 30 149 4.8 6.4 0.00 0.00 0.00 23 1022.6
20260906211607 31 162 4.8 4.8 0.00 0.00 0.00 21 1022.6
20260906211102 31 128 1.6 3.2 0.00 0.00 0.00 22 1022.6
20260906210557 32 130 3.2 3.2 0.00 0.00 0.00 22 1022.6
20260906210052 31 88 3.2 4.8 0.00 0.00 0.00 21 1022.6
20260906205548 31 133 3.2 16.1 0.00 0.00 0.00 22 1022.5
20260906205044 31 240 8.0 12.9 0.00 0.00 0.00 21 1022.6
20260906204543 31 341 4.8 6.4 0.00 0.00 0.00 21 1022.9
20260906204038 32 113 0.0 6.4 0.00 0.00 0.00 20 1022.7
20260906203537 31 132 0.0 3.2 0.00 0.00 0.00 23 1022.8
20260906203033 31 113 3.2 6.4 0.00 0.00 0.00 22 1022.9
20260906202529 31 119 0.0 4.8 0.00 0.00 0.00 21 1022.9
20260906202024 31 104 0.0 9.7 0.00 0.00 0.00 22 1022.9
20260906201524 31 127 0.0 9.7 0.00 0.00 0.00 23 1023.2
20260906201024 30 154 3.2 4.8 0.00 0.00 0.00 23 1023.3
20260906200520 30 120 1.6 3.2 0.00 0.00 0.00 23 1022.9
20260906200015 30 316 1.6 4.8 0.00 0.00 0.00 23 1023.2
20260906195511 29 101 1.6 4.8 0.00 0.00 0.00 24 1023.6
20260906195007 29 62 4.8 9.7 0.00 0.00 0.00 23 1023.4
20260906194503 29 42 3.2 4.8 0.00 0.00 0.00 24 1023.4
20260906193958 29 54 4.8 9.7 0.00 0.00 0.00 23 1023.4
20260906193453 29 108 1.6 6.4 0.00 0.00 0.00 24 1023.6
20260906192948 30 138 1.6 6.4 0.00 0.00 0.00 23 1023.6
20260906192443 29 152 3.2 4.8 0.00 0.00 0.00 23 1023.6
20260906191942 29 87 4.8 9.7 0.00 0.00 0.00 23 1023.7
20260906191437 29 50 6.4 9.7 0.00 0.00 0.00 23 1023.9
20260906190936 30 42 1.6 11.3 0.00 0.00 0.00 23 1024.1
20260906190435 29 121 1.6 4.8 0.00 0.00 0.00 26 1023.8
20260906185930 29 151 1.6 6.4 0.00 0.00 0.00 22 1024.1
20260906185429 29 95 3.2 4.8 0.00 0.00 0.00 22 1024.2
20260906184929 28 128 1.6 9.7 0.00 0.00 0.00 24 1024.2
20260906184425 29 87 1.6 4.8 0.00 0.00 0.00 23 1024.2
20260906183924 29 47 9.7 11.3 0.00 0.00 0.00 23 1024.4
20260906183421 30 148 3.2 3.2 0.00 0.00 0.00 23 1024.4
20260906182916 28 114 1.6 4.8 0.00 0.00 0.00 24 1024.4
20260906182411 28 57 3.2 4.8 0.00 0.00 0.00 23 1024.5
20260906181907 28 28 3.2 6.4 0.00 0.00 0.00 24 1024.8
20260906181402 27 146 1.6 9.7 0.00 0.00 0.00 24 1024.8
20260906180858 27 61 6.4 9.7 0.00 0.00 0.00 24 1025.0
20260906180353 27 182 1.6 4.8 0.00 0.00 0.00 25 1025.2
20260906175850 27 64 4.8 9.7 0.00 0.00 0.00 25 1025.0
20260906175345 28 116 3.2 6.4 0.00 0.00 0.00 24 1025.3
20260906174844 27 103 1.6 9.7 0.00 0.00 0.00 25 1025.2
20260906174344 27 58 4.8 6.4 0.00 0.00 0.00 25 1025.4
20260906173839 27 95 4.8 12.9 0.00 0.00 0.00 25 1025.4
20260906173335 27 97 4.8 6.4 0.00 0.00 0.00 24 1025.4
20260906172834 27 97 1.6 9.7 0.00 0.00 0.00 24 1025.7
20260906172331 28 135 1.6 6.4 0.00 0.00 0.00 23 1025.7
20260906171826 27 138 3.2 12.9 0.00 0.00 0.00 23 1025.5
20260906171326 28 193 1.6 6.4 0.00 0.00 0.00 24 1025.8
20260906170821 27 86 1.6 3.2 0.00 0.00 0.00 24 1025.4
20260906170312 28 117 4.8 4.8 0.00 0.00 0.00 23 1025.4
20260906165808 28 109 0.0 3.2 0.00 0.00 0.00 24 1025.3
20260906165308 27 180 1.6 3.2 0.00 0.00 0.00 25 1025.5
20260906164802 27 54 3.2 9.7 0.00 0.00 0.00 24 1025.5
20260906164301 27 70 0.0 3.2 0.00 0.00 0.00 25 1025.5
20260906163758 27 107 3.2 9.7 0.00 0.00 0.00 25 1025.7
20260906163254 27 115 1.6 1.6 0.00 0.00 0.00 23 1025.4
20260906162751 28 62 1.6 6.4 0.00 0.00 0.00 24 1025.7
20260906162245 27 139 0.0 6.4 0.00 0.00 0.00 25 1025.5
20260906161740 27 60 3.2 14.5 0.00 0.00 0.00 24 1025.7
20260906161239 27 133 1.6 3.2 0.00 0.00 0.00 23 1025.5
20260906160737 27 86 3.2 11.3 0.00 0.00 0.00 25 1025.5
20260906160232 26 79 3.2 4.8 0.00 0.00 0.00 24 1025.7
20260906155729 25 68 3.2 11.3 0.00 0.00 0.00 25 1025.5
20260906155224 26 37 6.4 6.4 0.00 0.00 0.00 27 1025.7
20260906154720 26 91 3.2 9.7 0.00 0.00 0.00 26 1025.5
20260906154215 26 107 1.6 3.2 0.00 0.00 0.00 27 1025.5
20260906153713 26 86 1.6 4.8 0.00 0.00 0.00 29 1025.4
20260906153208 25 103 1.6 4.8 0.00 0.00 0.00 34 1025.7
20260906152703 24 127 1.6 3.2 0.00 0.00 0.00 36 1025.7
20260906152203 23 129 1.6 1.6 0.00 0.00 0.00 38 1025.7
20260906151657 23 119 1.6 1.6 0.00 0.00 0.00 39 1025.5
20260906151153 23 123 1.6 3.2 0.00 0.00 0.00 39 1025.7
20260906150648 21 111 0.0 1.6 0.00 0.00 0.00 40 1025.7
20260906150143 21 119 0.0 1.6 0.00 0.00 0.00 42 1025.9
20260906145642 20 96 1.6 3.2 0.00 0.00 0.00 43 1025.9
20260906145137 19 68 3.2 3.2 0.00 0.00 0.00 46 1025.8
20260906144631 18 69 3.2 3.2 0.00 0.00 0.00 47 1025.9
20260906144126 18 79 3.2 4.8 0.00 0.00 0.00 49 1025.8
20260906143626 17 60 3.2 4.8 0.00 0.00 0.00 49 1025.8
20260906143123 17 105 0.0 1.6 0.00 0.00 0.00 51 1025.9
20260906142622 17 104 1.6 3.2 0.00 0.00 0.00 51 1025.8
20260906142117 16 97 0.0 1.6 0.00 0.00 0.00 55 1025.7
20260906141616 15 111 1.6 3.2 0.00 0.00 0.00 56 1025.9
20260906141112 15 108 1.6 1.6 0.00 0.00 0.00 59 1025.9
20260906140611 14 70 3.2 3.2 0.00 0.00 0.00 57 1025.9
20260906140106 13 88 3.2 3.2 0.00 0.00 0.00 59 1025.8
20260906135603 12 57 3.2 4.8 0.00 0.00 0.00 61 1025.7
20260906135059 12 58 3.2 4.8 0.00 0.00 0.00 63 1025.7
20260906134554 12 96 1.6 3.2 0.00 0.00 0.00 67 1025.5
20260906134049 12 58 3.2 4.8 0.00 0.00 0.00 62 1025.8
20260906133550 11 100 0.0 1.6 0.00 0.00 0.00 70 1025.5
20260906133045 10 79 1.6 3.2 0.00 0.00 0.00 76 1025.7
20260906132540 9 76 3.2 3.2 0.00 0.00 0.00 76 1025.5
20260906132036 8 87 1.6 1.6 0.00 0.00 0.00 78 1025.5
20260906131531 8 75 1.6 3.2 0.00 0.00 0.00 80 1025.5
20260906131026 8 89 1.6 1.6 0.00 0.00 0.00 80 1025.3
20260906130525 8 104 0.0 1.6 0.00 0.00 0.00 81 1025.3
20260906130022 8 115 0.0 0.0 0.00 0.00 0.00 81 1025.3
20260906125519 8 108 0.0 0.0 0.00 0.00 0.00 81 1025.2
20260906125019 8 97 1.6 1.6 0.00 0.00 0.00 81 1025.2
20260906124514 8 88 1.6 1.6 0.00 0.00 0.00 78 1025.4
20260906124009 8 101 0.0 1.6 0.00 0.00 0.00 76 1024.9
20260906123508 8 101 0.0 1.6 0.00 0.00 0.00 82 1025.0
20260906123004 8 86 1.6 1.6 0.00 0.00 0.00 82 1025.2
20260906122503 8 54 3.2 3.2 0.00 0.00 0.00 81 1025.3
20260906121959 8 100 1.6 1.6 0.00 0.00 0.00 82 1024.9
20260906121455 8 104 0.0 1.6 0.00 0.00 0.00 82 1024.9
20260906120951 8 112 0.0 0.0 0.00 0.00 0.00 83 1025.0
20260906120447 8 112 0.0 0.0 0.00 0.00 0.00 82 1024.9
20260906115943 8 102 0.0 1.6 0.00 0.00 0.00 82 1024.8
20260906115438 8 100 0.0 1.6 0.00 0.00 0.00 81 1024.8
20260906114938 8 108 0.0 1.6 0.00 0.00 0.00 81 1024.9
20260906114432 8 113 0.0 0.0 0.00 0.00 0.00 80 1025.0
20260906113928 8 111 0.0 1.6 0.00 0.00 0.00 80 1024.9
20260906113426 8 99 0.0 1.6 0.00 0.00 0.00 79 1024.8
20260906112923 8 112 0.0 0.0 0.00 0.00 0.00 78 1024.8
20260906112418 8 97 0.0 1.6 0.00 0.00 0.00 78 1024.5
20260906111914 8 90 0.0 1.6 0.00 0.00 0.00 78 1024.7
20260906111413 9 99 0.0 1.6 0.00 0.00 0.00 75 1024.8
20260906110908 9 102 0.0 1.6 0.00 0.00 0.00 76 1024.9
20260906110403 9 88 1.6 1.6 0.00 0.00 0.00 76 1024.8
20260906105903 10 111 0.0 3.2 0.00 0.00 0.00 76 1024.9
20260906105358 9 287 3.2 4.8 0.00 0.00 0.00 73 1024.8
20260906104854 8 76 1.6 1.6 0.00 0.00 0.00 79 1024.8
20260906104352 8 92 1.6 1.6 0.00 0.00 0.00 80 1024.8
20260906103851 8 98 0.0 1.6 0.00 0.00 0.00 81 1024.8
20260906103349 8 97 0.0 1.6 0.00 0.00 0.00 80 1024.8
20260906102846 10 98 0.0 1.6 0.00 0.00 0.00 75 1024.7
20260906102344 10 98 0.0 1.6 0.00 0.00 0.00 74 1024.5
20260906101840 9 91 0.0 1.6 0.00 0.00 0.00 77 1024.5
20260906101335 9 96 1.6 1.6 0.00 0.00 0.00 79 1024.7
20260906100831 10 101 0.0 0.0 0.00 0.00 0.00 74 1024.7
20260906100329 9 84 1.6 1.6 0.00 0.00 0.00 76 1024.8
20260906095825 9 101 0.0 1.6 0.00 0.00 0.00 77 1024.8
20260906095320 9 97 0.0 1.6 0.00 0.00 0.00 76 1024.8
20260906094819 9 102 0.0 1.6 0.00 0.00 0.00 77 1025.2
20260906094315 10 99 0.0 0.0 0.00 0.00 0.00 74 1024.9
20260906093811 10 103 0.0 1.6 0.00 0.00 0.00 75 1024.8
20260906093307 10 100 0.0 1.6 0.00 0.00 0.00 75 1024.9
20260906092802 10 95 1.6 1.6 0.00 0.00 0.00 75 1025.0
20260906092301 10 106 0.0 1.6 0.00 0.00 0.00 75 1024.8
20260906091757 10 96 1.6 1.6 0.00 0.00 0.00 72 1025.0
20260906091253 10 100 0.0 1.6 0.00 0.00 0.00 70 1025.0
20260906090749 10 102 0.0 1.6 0.00 0.00 0.00 75 1024.8
20260906090248 10 90 1.6 1.6 0.00 0.00 0.00 72 1025.0
20260906085748 10 88 1.6 1.6 0.00 0.00 0.00 74 1024.7
20260906085247 10 107 0.0 0.0 0.00 0.00 0.00 76 1024.8
20260906084742 10 109 0.0 0.0 0.00 0.00 0.00 74 1024.9
20260906084242 10 100 0.0 1.6 0.00 0.00 0.00 74 1024.7
20260906083737 10 83 1.6 1.6 0.00 0.00 0.00 75 1025.0
20260906083232 10 97 1.6 1.6 0.00 0.00 0.00 76 1025.0
20260906082727 10 93 0.0 1.6 0.00 0.00 0.00 73 1025.0
20260906082222 10 104 0.0 1.6 0.00 0.00 0.00 72 1024.9
20260906081719 11 94 1.6 1.6 0.00 0.00 0.00 71 1025.0
20260906081213 10 99 0.0 1.6 0.00 0.00 0.00 73 1024.9
20260906080710 11 97 0.0 1.6 0.00 0.00 0.00 74 1025.0
20260906080206 11 110 0.0 0.0 0.00 0.00 0.00 69 1024.9
20260906075706 11 107 0.0 0.0 0.00 0.00 0.00 70 1025.0
20260906075200 12 95 0.0 1.6 0.00 0.00 0.00 65 1025.2
20260906074655 12 100 0.0 3.2 0.00 0.00 0.00 65 1025.2
20260906074154 11 83 0.0 1.6 0.00 0.00 0.00 67 1025.2
20260906073650 11 95 0.0 3.2 0.00 0.00 0.00 70 1025.2
20260906073145 11 86 1.6 3.2 0.00 0.00 0.00 72 1025.2
20260906072641 11 93 1.6 1.6 0.00 0.00 0.00 69 1025.2
20260906072136 11 94 1.6 1.6 0.00 0.00 0.00 72 1025.2
20260906071632 11 99 0.0 1.6 0.00 0.00 0.00 74 1025.3
20260906071132 11 107 0.0 0.0 0.00 0.00 0.00 73 1025.3
20260906070629 11 113 0.0 0.0 0.00 0.00 0.00 74 1025.3
20260906070124 11 106 0.0 1.6 0.00 0.00 0.00 74 1025.3
20260906065624 12 109 0.0 0.0 0.00 0.00 0.00 71 1025.2
20260906065119 12 109 0.0 0.0 0.00 0.00 0.00 70 1025.2
20260906064614 12 106 0.0 1.6 0.00 0.00 0.00 71 1025.3
20260906064109 12 106 0.0 1.6 0.00 0.00 0.00 71 1025.4
20260906063605 12 108 0.0 1.6 0.00 0.00 0.00 71 1025.3
20260906063101 12 110 0.0 0.0 0.00 0.00 0.00 73 1025.2
20260906062556 12 103 0.0 1.6 0.00 0.00 0.00 72 1025.2
20260906062055 12 106 0.0 0.0 0.00 0.00 0.00 71 1025.2
20260906061552 12 101 0.0 1.6 0.00 0.00 0.00 72 1025.4
20260906061050 12 112 0.0 0.0 0.00 0.00 0.00 73 1025.0
20260906060547 12 107 0.0 0.0 0.00 0.00 0.00 71 1025.2
20260906060044 12 102 0.0 1.6 0.00 0.00 0.00 73 1025.3
20260906055540 13 85 1.6 1.6 0.00 0.00 0.00 73 1025.3
20260906055035 13 115 0.0 1.6 0.00 0.00 0.00 68 1025.0
20260906054535 13 122 0.0 0.0 0.00 0.00 0.00 66 1025.2
20260906054030 13 109 0.0 0.0 0.00 0.00 0.00 69 1025.4
20260906053527 13 110 0.0 0.0 0.00 0.00 0.00 71 1025.3
20260906053022 13 112 0.0 0.0 0.00 0.00 0.00 72 1025.3
20260906052518 13 113 0.0 0.0 0.00 0.00 0.00 64 1025.2
20260906052015 13 117 0.0 0.0 0.00 0.00 0.00 70 1025.2
20260906051510 13 101 0.0 1.6 0.00 0.00 0.00 71 1025.2
20260906051005 13 103 0.0 1.6 0.00 0.00 0.00 70 1025.3
20260906050500 14 116 0.0 0.0 0.00 0.00 0.00 66 1025.4
20260906045959 14 117 0.0 0.0 0.00 0.00 0.00 64 1025.2
20260906045458 14 106 0.0 0.0 0.00 0.00 0.00 68 1025.2
20260906044954 14 115 0.0 0.0 0.00 0.00 0.00 70 1025.2
20260906044449 14 112 0.0 0.0 0.00 0.00 0.00 61 1025.2
20260906043945 15 119 0.0 0.0 0.00 0.00 0.00 64 1025.2
20260906043441 15 111 0.0 0.0 0.00 0.00 0.00 67 1024.9
20260906042936 15 111 0.0 0.0 0.00 0.00 0.00 66 1025.2
20260906042435 15 115 0.0 0.0 0.00 0.00 0.00 60 1025.0
20260906041930 15 124 0.0 0.0 0.00 0.00 0.00 64 1025.3
20260906041426 15 112 0.0 1.6 0.00 0.00 0.00 63 1025.0
20260906040921 15 109 0.0 0.0 0.00 0.00 0.00 63 1025.0
20260906040416 15 113 0.0 0.0 0.00 0.00 0.00 63 1025.0
20260906035911 16 117 0.0 0.0 0.00 0.00 0.00 64 1025.2
20260906035406 16 108 0.0 1.6 0.00 0.00 0.00 62 1025.3
20260906034901 16 113 0.0 0.0 0.00 0.00 0.00 63 1025.0
20260906034355 17 121 0.0 0.0 0.00 0.00 0.00 60 1024.9
20260906033852 17 98 0.0 0.0 0.00 0.00 0.00 56 1024.9
20260906033351 17 98 0.0 0.0 0.00 0.00 0.00 58 1025.2
20260906032847 18 116 0.0 0.0 0.00 0.00 0.00 55 1024.9
20260906032343 18 115 0.0 0.0 0.00 0.00 0.00 53 1025.0
20260906031838 18 111 0.0 0.0 0.00 0.00 0.00 52 1024.7
20260906031334 18 104 0.0 1.6 0.00 0.00 0.00 52 1024.7
20260906030833 18 100 1.6 1.6 0.00 0.00 0.00 53 1024.7
20260906030329 18 98 0.0 1.6 0.00 0.00 0.00 52 1024.8
20260906025828 18 82 0.0 0.0 0.00 0.00 0.00 52 1024.5
20260906025322 18 88 0.0 0.0 0.00 0.00 0.00 55 1024.5
20260906024821 18 86 0.0 0.0 0.00 0.00 0.00 54 1024.4
20260906024321 18 91 0.0 1.6 0.00 0.00 0.00 51 1024.3
20260906023817 18 91 1.6 3.2 0.00 0.00 0.00 51 1024.1
20260906023312 19 80 1.6 1.6 0.00 0.00 0.00 51 1024.1
20260906022808 20 98 0.0 1.6 0.00 0.00 0.00 47 1024.3
20260906022306 20 109 0.0 1.6 0.00 0.00 0.00 49 1023.9
20260906021758 20 91 1.6 1.6 0.00 0.00 0.00 46 1024.2
20260906021252 21 101 0.0 1.6 0.00 0.00 0.00 43 1023.9
20260906020746 21 95 1.6 3.2 0.00 0.00 0.00 43 1023.9
20260906020240 22 73 1.6 3.2 0.00 0.00 0.00 43 1023.9
20260906015735 22 90 1.6 1.6 0.00 0.00 0.00 39 1023.7
20260906015233 22 93 0.0 0.0 0.00 0.00 0.00 42 1023.8
20260906014728 22 117 0.0 1.6 0.00 0.00 0.00 40 1023.7
20260906014224 22 126 0.0 0.0 0.00 0.00 0.00 39 1023.7
20260906013720 22 116 0.0 0.0 0.00 0.00 0.00 39 1023.6
20260906013220 23 122 0.0 0.0 0.00 0.00 0.00 38 1023.8
20260906012716 23 125 0.0 0.0 0.00 0.00 0.00 38 1023.4
20260906012215 23 118 0.0 1.6 0.00 0.00 0.00 37 1023.7
20260906011711 23 122 0.0 0.0 0.00 0.00 0.00 36 1023.4
20260906011205 24 121 0.0 1.6 0.00 0.00 0.00 36 1023.7
20260906010701 24 122 0.0 3.2 0.00 0.00 0.00 36 1023.6
20260906010157 24 123 1.6 4.8 0.00 0.00 0.00 35 1023.6
20260906005656 24 126 1.6 3.2 0.00 0.00 0.00 35 1023.7
20260906005151 25 119 0.0 3.2 0.00 0.00 0.00 36 1023.4
20260906004649 25 99 0.0 0.0 0.00 0.00 0.00 34 1023.6
20260906004144 25 125 0.0 4.8 0.00 0.00 0.00 34 1023.4
20260906003634 25 185 1.6 3.2 0.00 0.00 0.00 33 1023.6
20260906003129 25 113 0.0 3.2 0.00 0.00 0.00 33 1023.7
20260906002625 26 124 3.2 3.2 0.00 0.00 0.00 32 1023.3
20260906002119 26 139 1.6 6.4 0.00 0.00 0.00 31 1023.1
20260906001615 27 127 0.0 6.4 0.00 0.00 0.00 30 1023.3
20260906001114 27 149 3.2 4.8 0.00 0.00 0.00 30 1023.2
20260906000610 27 128 0.0 1.6 0.00 0.00 0.00 31 1023.3
20260906000106 27 126 1.6 3.2 0.00 0.00 0.00 31 1023.2
20260905235604 27 184 3.2 3.2 0.00 0.00 0.00 30 1023.2
20260905235059 27 126 0.0 1.6 0.00 0.00 0.00 30 1023.4
20260905234555 26 69 1.6 3.2 0.00 0.00 0.00 29 1023.2
20260905234050 27 134 1.6 6.4 0.00 0.00 0.00 29 1023.3
20260905233545 27 153 4.8 6.4 0.00 0.00 0.00 29 1023.3
20260905233045 27 147 6.4 9.7 0.00 0.00 0.00 29 1023.2
20260905232540 27 110 1.6 3.2 0.00 0.00 0.00 29 1023.2
20260905232036 27 333 3.2 3.2 0.00 0.00 0.00 29 1023.2
20260905231531 27 151 3.2 6.4 0.00 0.00 0.00 28 1023.2
20260905231027 28 126 3.2 4.8 0.00 0.00 0.00 29 1023.2
20260905230526 28 221 4.8 9.7 0.00 0.00 0.00 28 1023.3
20260905230025 28 114 4.8 9.7 0.00 0.00 0.00 28 1023.2